FFT215 KCVG-KTIP

Flight info

Callsign FFT215
Flight time 1h 26m
Altitude 26000
Route LOVEY8 ZABAL DCT VHP DCT
Aircraft A21N/M-SDE2E3FGHIRWXY/LB1

Departure

Time 2026-05-05 01:14
Airport Cincinnati Northern Kentucky International Airport (KCVG)

Arrival

Time 2026-05-05 02:40
Airport Rantoul National Aviation Center - Frank Elliot field (KTIP)
Time Latitude Longitude Altitude Speed Heading
2026-05-05 00:59 39.05288 -84.65348 891 ft 0 kts 351°
2026-05-05 01:08 39.05286 -84.65347 891 ft 3 kts 351°
2026-05-05 01:09 39.05268 -84.65343 891 ft 3 kts 351°
2026-05-05 01:09 39.05250 -84.65339 891 ft 3 kts
2026-05-05 01:09 39.05231 -84.65344 891 ft 3 kts 38°
2026-05-05 01:09 39.05217 -84.65362 891 ft 3 kts 72°
2026-05-05 01:10 39.05213 -84.65375 891 ft 0 kts 90°
2026-05-05 01:11 39.05214 -84.65307 892 ft 6 kts 89°
2026-05-05 01:11 39.05214 -84.65223 892 ft 13 kts 90°
2026-05-05 01:11 39.05214 -84.65110 892 ft 14 kts 90°
2026-05-05 01:11 39.05214 -84.64972 892 ft 15 kts 91°
2026-05-05 01:12 39.05258 -84.64880 893 ft 16 kts 10°
2026-05-05 01:12 39.05388 -84.64880 892 ft 21 kts
2026-05-05 01:12 39.05539 -84.64878 891 ft 14 kts
2026-05-05 01:12 39.05573 -84.64779 893 ft 13 kts 98°
2026-05-05 01:13 39.05561 -84.64690 894 ft 13 kts 124°
2026-05-05 01:13 39.05410 -84.64671 893 ft 50 kts 181°
2026-05-05 01:13 39.04761 -84.64672 902 ft 135 kts 180°
2026-05-05 01:13 39.03566 -84.64671 1122 ft 201 kts 181°
2026-05-05 01:14 39.02019 -84.64691 1722 ft 244 kts 184°
2026-05-05 01:14 39.00311 -84.64652 3365 ft 243 kts 182°
2026-05-05 01:14 38.98672 -84.64485 5218 ft 230 kts 181°
2026-05-05 01:14 38.97125 -84.64253 6832 ft 221 kts 178°
2026-05-05 01:15 38.95596 -84.63994 7894 ft 223 kts 194°
2026-05-05 01:15 38.94130 -84.64677 8554 ft 234 kts 217°
2026-05-05 01:15 38.92705 -84.65852 9174 ft 259 kts 217°
2026-05-05 01:15 38.91261 -84.67242 10298 ft 257 kts 232°
2026-05-05 01:16 38.90271 -84.69158 11303 ft 264 kts 248°
2026-05-05 01:16 38.89805 -84.71497 12049 ft 282 kts 265°
2026-05-05 01:16 38.89808 -84.74105 12743 ft 303 kts 272°
2026-05-05 01:16 38.90303 -84.76826 13419 ft 327 kts 289°
2026-05-05 01:17 38.91529 -84.79423 14018 ft 354 kts 304°
2026-05-05 01:17 38.93161 -84.81861 14932 ft 362 kts 307°
2026-05-05 01:17 38.94827 -84.84304 16005 ft 366 kts 307°
2026-05-05 01:17 38.96485 -84.86832 16907 ft 373 kts 307°
2026-05-05 01:18 38.98137 -84.89375 17850 ft 379 kts 307°
2026-05-05 01:18 38.99854 -84.91980 18649 ft 385 kts 307°
2026-05-05 01:18 39.01599 -84.94609 19521 ft 388 kts 307°
2026-05-05 01:18 39.03347 -84.97265 20377 ft 391 kts 307°
2026-05-05 01:19 39.05109 -84.99958 21186 ft 395 kts 307°
2026-05-05 01:19 39.06863 -85.02697 21967 ft 398 kts 303°
2026-05-05 01:19 39.08212 -85.05792 22746 ft 398 kts 293°
2026-05-05 01:19 39.09411 -85.09022 23476 ft 402 kts 293°
2026-05-05 01:20 39.10616 -85.12229 24083 ft 405 kts 294°
2026-05-05 01:20 39.11860 -85.15509 24688 ft 409 kts 294°
2026-05-05 01:20 39.13108 -85.18821 25260 ft 413 kts 294°
2026-05-05 01:20 39.14362 -85.22173 25799 ft 419 kts 294°
2026-05-05 01:21 39.15634 -85.25570 25785 ft 418 kts 294°
2026-05-05 01:21 39.16887 -85.28900 25769 ft 412 kts 294°
2026-05-05 01:21 39.18133 -85.32229 25775 ft 411 kts 294°
2026-05-05 01:21 39.19370 -85.35541 25769 ft 410 kts 294°
2026-05-05 01:22 39.20590 -85.38812 25773 ft 410 kts 294°
2026-05-05 01:22 39.22054 -85.41976 25769 ft 413 kts 305°
2026-05-05 01:22 39.23880 -85.44845 25773 ft 414 kts 307°
2026-05-05 01:22 39.25719 -85.47703 25777 ft 414 kts 307°
2026-05-05 01:23 39.27541 -85.50584 25782 ft 414 kts 306°
2026-05-05 01:23 39.29356 -85.53464 25781 ft 414 kts 307°
2026-05-05 01:23 39.31188 -85.56358 25363 ft 416 kts 307°
2026-05-05 01:23 39.32989 -85.59184 25451 ft 408 kts 307°
2026-05-05 01:24 39.34782 -85.62018 25569 ft 414 kts 307°
2026-05-05 01:24 39.36593 -85.64891 25695 ft 413 kts 307°
2026-05-05 01:24 39.38416 -85.67780 25775 ft 416 kts 307°
2026-05-05 01:24 39.40245 -85.70674 25754 ft 415 kts 307°
2026-05-05 01:25 39.42068 -85.73564 25752 ft 415 kts 307°
2026-05-05 01:25 39.43890 -85.76460 25754 ft 415 kts 307°
2026-05-05 01:25 39.45712 -85.79357 25755 ft 415 kts 307°
2026-05-05 01:25 39.47534 -85.82255 25751 ft 415 kts 307°
2026-05-05 01:26 39.49352 -85.85148 25753 ft 415 kts 307°
2026-05-05 01:26 39.51147 -85.88010 25744 ft 415 kts 307°
2026-05-05 01:26 39.52964 -85.90910 25745 ft 415 kts 306°
2026-05-05 01:26 39.54782 -85.93811 25745 ft 415 kts 306°
2026-05-05 01:27 39.56597 -85.96713 25756 ft 415 kts 306°
2026-05-05 01:27 39.58412 -85.99618 25758 ft 414 kts 306°
2026-05-05 01:27 39.59616 -86.01546 25758 ft 414 kts 306°
2026-05-05 01:28 39.60642 -86.03187 25836 ft 388 kts 306°
2026-05-05 01:28 39.62262 -86.05792 25716 ft 370 kts 306°
2026-05-05 01:28 39.63866 -86.08394 25755 ft 377 kts 306°
2026-05-05 01:28 39.65574 -86.11101 25755 ft 397 kts 307°
2026-05-05 01:29 39.67338 -86.13916 25755 ft 406 kts 306°
2026-05-05 01:29 39.69112 -86.16790 25762 ft 410 kts 306°
2026-05-05 01:29 39.70903 -86.19688 25728 ft 412 kts 306°
2026-05-05 01:29 39.72707 -86.22582 25730 ft 413 kts 306°
2026-05-05 01:30 39.74513 -86.25488 25731 ft 413 kts 306°
2026-05-05 01:30 39.76312 -86.28398 25730 ft 413 kts 306°
2026-05-05 01:30 39.78091 -86.31278 25731 ft 414 kts 306°
2026-05-05 01:30 39.79894 -86.34192 25731 ft 414 kts 306°
2026-05-05 01:31 39.81610 -86.37182 25726 ft 412 kts 298°
2026-05-05 01:31 39.82905 -86.40491 25725 ft 411 kts 294°
2026-05-05 01:31 39.84151 -86.43838 25726 ft 411 kts 294°
2026-05-05 01:31 39.85415 -86.47173 25730 ft 411 kts 294°
2026-05-05 01:32 39.86684 -86.50504 25732 ft 411 kts 294°
2026-05-05 01:32 39.87944 -86.53846 25733 ft 411 kts 294°
2026-05-05 01:32 39.89181 -86.57142 25733 ft 411 kts 294°
2026-05-05 01:32 39.90442 -86.60488 25732 ft 412 kts 294°
2026-05-05 01:33 39.91702 -86.63833 25736 ft 412 kts 294°
2026-05-05 01:33 39.92960 -86.67184 25737 ft 412 kts 294°
2026-05-05 01:33 39.94209 -86.70512 25735 ft 400 kts 294°
2026-05-05 01:33 39.95403 -86.73691 25731 ft 385 kts 294°
2026-05-05 01:34 39.96572 -86.76816 25731 ft 381 kts 294°
2026-05-05 01:34 39.97715 -86.79877 25731 ft 377 kts 294°
2026-05-05 01:34 39.98856 -86.82931 25732 ft 377 kts 294°
2026-05-05 01:34 40.00002 -86.86000 25732 ft 376 kts 294°
2026-05-05 01:35 40.01145 -86.89066 25734 ft 376 kts 294°
2026-05-05 01:35 40.02288 -86.92136 25736 ft 376 kts 294°
2026-05-05 01:35 40.03431 -86.95206 25736 ft 376 kts 294°
2026-05-05 01:35 40.04573 -86.98280 25738 ft 377 kts 294°
2026-05-05 01:36 40.05715 -87.01354 25735 ft 377 kts 294°
2026-05-05 01:36 40.06856 -87.04431 25735 ft 376 kts 294°
2026-05-05 01:36 40.07996 -87.07508 25731 ft 377 kts 294°
2026-05-05 01:36 40.09120 -87.10545 25725 ft 376 kts 294°
2026-05-05 01:37 40.10257 -87.13619 25721 ft 376 kts 294°
2026-05-05 01:37 40.11395 -87.16701 25720 ft 376 kts 294°
2026-05-05 01:37 40.12530 -87.19776 25710 ft 376 kts 293°
2026-05-05 01:37 40.13660 -87.22843 25634 ft 369 kts 293°
2026-05-05 01:38 40.14770 -87.25856 24680 ft 371 kts 294°
2026-05-05 01:38 40.15887 -87.28895 23913 ft 370 kts 294°
2026-05-05 01:38 40.16993 -87.31903 23314 ft 363 kts 294°
2026-05-05 01:38 40.18068 -87.34829 22495 ft 361 kts 294°
2026-05-05 01:39 40.19144 -87.37765 21771 ft 356 kts 294°
2026-05-05 01:39 40.20207 -87.40666 21039 ft 352 kts 294°
2026-05-05 01:39 40.21256 -87.43533 20321 ft 348 kts 294°
2026-05-05 01:39 40.22292 -87.46363 19587 ft 338 kts 293°
2026-05-05 01:40 40.23296 -87.49110 18270 ft 335 kts 293°
2026-05-05 01:40 40.24295 -87.51853 16945 ft 331 kts 293°
2026-05-05 01:40 40.25273 -87.54536 15750 ft 323 kts 293°
2026-05-05 01:40 40.26227 -87.57151 14870 ft 310 kts 293°
2026-05-05 01:41 40.27105 -87.59556 14486 ft 284 kts 293°
2026-05-05 01:41 40.27914 -87.61781 14185 ft 260 kts 293°
2026-05-05 01:41 40.28690 -87.63928 13139 ft 265 kts 293°
2026-05-05 01:41 40.29458 -87.66042 12407 ft 244 kts 293°
2026-05-05 01:42 40.30153 -87.67945 11839 ft 220 kts 293°
2026-05-05 01:42 40.30789 -87.69705 11037 ft 211 kts 293°
2026-05-05 01:42 40.31417 -87.71445 10078 ft 211 kts 293°
2026-05-05 01:42 40.32032 -87.73145 9171 ft 208 kts 293°
2026-05-05 01:43 40.32648 -87.74843 8235 ft 205 kts 293°
2026-05-05 01:43 40.33255 -87.76520 7319 ft 202 kts 292°
2026-05-05 01:43 40.33854 -87.78179 6449 ft 200 kts 292°
2026-05-05 01:43 40.34448 -87.79821 5570 ft 198 kts 291°
2026-05-05 01:44 40.35024 -87.81412 4903 ft 187 kts 291°
2026-05-05 01:44 40.35566 -87.82912 4218 ft 180 kts 290°
2026-05-05 01:44 40.36100 -87.84390 3473 ft 178 kts 288°
2026-05-05 01:44 40.36625 -87.85858 2805 ft 185 kts 287°
2026-05-05 01:45 40.37162 -87.87345 2540 ft 177 kts 287°
2026-05-05 01:45 40.37686 -87.88792 2290 ft 172 kts 286°
2026-05-05 01:45 40.38210 -87.90262 2295 ft 179 kts 287°
2026-05-05 01:45 40.38740 -87.91736 2302 ft 184 kts 287°
2026-05-05 01:46 40.39277 -87.93221 2300 ft 181 kts 287°
2026-05-05 01:46 40.39816 -87.94723 2297 ft 180 kts 287°
2026-05-05 01:46 40.40356 -87.96225 2308 ft 182 kts 287°
2026-05-05 01:46 40.40894 -87.97719 2311 ft 180 kts 287°
2026-05-05 01:47 40.41408 -87.99144 2304 ft 174 kts 287°
2026-05-05 01:47 40.41917 -88.00565 2300 ft 170 kts 287°
2026-05-05 01:47 40.42414 -88.01956 2301 ft 165 kts 287°
2026-05-05 01:47 40.42904 -88.03320 2303 ft 163 kts 287°
2026-05-05 01:48 40.43386 -88.04665 2305 ft 163 kts 286°
2026-05-05 01:48 40.43864 -88.06003 2303 ft 163 kts 287°
2026-05-05 01:48 40.44341 -88.07338 2306 ft 161 kts 286°
2026-05-05 01:48 40.44818 -88.08675 2309 ft 161 kts 287°
2026-05-05 01:49 40.45290 -88.09991 2307 ft 162 kts 286°
2026-05-05 01:49 40.45530 -88.11372 2300 ft 151 kts 264°
2026-05-05 01:49 40.45297 -88.12623 2281 ft 138 kts 243°
2026-05-05 01:49 40.44733 -88.13614 2285 ft 133 kts 224°
2026-05-05 01:50 40.43931 -88.14234 2288 ft 133 kts 206°
2026-05-05 01:50 40.43018 -88.14399 2301 ft 139 kts 188°
2026-05-05 01:50 40.42099 -88.14378 2299 ft 131 kts 189°
2026-05-05 01:50 40.41196 -88.14387 2300 ft 128 kts 190°
2026-05-05 01:51 40.40311 -88.14390 2304 ft 124 kts 190°
2026-05-05 01:51 40.39418 -88.14396 2299 ft 131 kts 190°
2026-05-05 01:51 40.38516 -88.14392 2310 ft 133 kts 190°
2026-05-05 01:51 40.37590 -88.14392 2248 ft 143 kts 190°
2026-05-05 01:52 40.36585 -88.14414 2080 ft 143 kts 189°
2026-05-05 01:52 40.35609 -88.14373 1893 ft 138 kts 187°
2026-05-05 01:52 40.34660 -88.14399 1731 ft 132 kts 187°
2026-05-05 01:52 40.33768 -88.14389 1528 ft 128 kts 189°
2026-05-05 01:53 40.32856 -88.14396 1380 ft 137 kts 184°
2026-05-05 01:53 40.31854 -88.14397 1154 ft 148 kts 182°
2026-05-05 01:53 40.30819 -88.14384 927 ft 151 kts 183°
2026-05-05 01:53 40.29675 -88.14385 1008 ft 182 kts 181°
2026-05-05 01:54 40.28322 -88.14334 1612 ft 195 kts 182°
2026-05-05 01:54 40.26944 -88.14245 2255 ft 207 kts 183°
2026-05-05 01:54 40.25421 -88.14303 2290 ft 230 kts 198°
2026-05-05 01:54 40.24130 -88.15537 2276 ft 239 kts 233°
2026-05-05 01:55 40.23660 -88.17792 2266 ft 294 kts 269°
2026-05-05 01:55 40.23959 -88.20368 2312 ft 279 kts 280°
2026-05-05 01:55 40.24456 -88.22696 2305 ft 254 kts 283°
2026-05-05 01:55 40.24961 -88.24803 2299 ft 232 kts 283°
2026-05-05 01:56 40.25472 -88.26708 2290 ft 215 kts 292°
2026-05-05 01:56 40.26585 -88.28024 2337 ft 231 kts 333°
2026-05-05 01:56 40.27998 -88.28258 2322 ft 238 kts 357°
2026-05-05 02:32 40.29050 -88.28122 2399 ft 224 kts
2026-05-05 02:32 40.30563 -88.27819 2193 ft 222 kts
2026-05-05 02:32 40.32038 -88.27534 2255 ft 206 kts
2026-05-05 02:32 40.33445 -88.27285 2324 ft 203 kts
2026-05-05 02:33 40.34928 -88.26994 2457 ft 243 kts
2026-05-05 02:33 40.36559 -88.26570 2371 ft 238 kts
2026-05-05 02:33 40.38244 -88.26216 2316 ft 244 kts
2026-05-05 02:33 40.39938 -88.26024 2326 ft 250 kts 358°
2026-05-05 02:34 40.41629 -88.25838 2306 ft 245 kts 359°
2026-05-05 02:34 40.43341 -88.25656 2314 ft 243 kts 359°
2026-05-05 02:34 40.45002 -88.25041 2334 ft 258 kts 31°
2026-05-05 02:34 40.46104 -88.23287 2322 ft 250 kts 74°
2026-05-05 02:35 40.46449 -88.21049 2320 ft 248 kts 87°
2026-05-05 02:35 40.46629 -88.18842 2309 ft 241 kts 89°
2026-05-05 02:35 40.46325 -88.16778 2272 ft 219 kts 127°
2026-05-05 02:35 40.45292 -88.15707 2287 ft 178 kts 172°
2026-05-05 02:36 40.44192 -88.15409 2439 ft 156 kts 175°
2026-05-05 02:36 40.43160 -88.14935 2592 ft 154 kts 171°
2026-05-05 02:36 40.42147 -88.14624 2560 ft 142 kts 180°
2026-05-05 02:36 40.41167 -88.14409 2387 ft 136 kts 184°
2026-05-05 02:37 40.40708 -88.14371 2333 ft 125 kts 188°
2026-05-05 02:37 40.39880 -88.14340 2189 ft 117 kts 189°
2026-05-05 02:37 40.39096 -88.14342 2007 ft 110 kts 189°
2026-05-05 02:37 40.38341 -88.14371 1857 ft 106 kts 189°
2026-05-05 02:38 40.37615 -88.14372 1724 ft 103 kts 186°
2026-05-05 02:38 40.36813 -88.14398 1629 ft 136 kts 187°
2026-05-05 02:38 40.35910 -88.14371 1545 ft 134 kts 185°
2026-05-05 02:38 40.34964 -88.14408 1479 ft 133 kts 181°
2026-05-05 02:39 40.34036 -88.14373 1381 ft 127 kts 185°
2026-05-05 02:39 40.33118 -88.14385 1250 ft 132 kts 184°
2026-05-05 02:39 40.32207 -88.14389 1106 ft 134 kts 181°
2026-05-05 02:39 40.31304 -88.14383 929 ft 132 kts 182°
2026-05-05 02:40 40.30353 -88.14380 790 ft 133 kts 183°
2026-05-05 02:40 40.29463 -88.14390 740 ft 116 kts 179°
2026-05-05 02:40 40.29023 -88.14386 741 ft 22 kts 179°
2026-05-05 02:40 40.28982 -88.14386 742 ft 15 kts 180°